Location: Liscomb Game Sanctuary
(45.1633°N, 62.5575°W)
Time: 21:30:55

Cosmos 2034 Rocket - Pass Details

Date: 22 February 2018
Orbit: 959 x 1000 km, 82.9° (Epoch: 21 March)

Event Time Altitude Azimuth Distance (km) Brightness Sun altitude
Rises 18:42:38 0° 355° (N) 3,733 7.1 -10.4°
Reaches altitude 10° 18:45:15 10° 360° (N) 2,781 6.4 -10.8°
Maximum altitude 18:51:30 55° 77° (ENE) 1,195 4.1 -11.9°
Drops below altitude 10° 18:57:42 10° 155° (SSE) 2,756 6.1 -13.0°
Sets 19:00:17 0° 159° (SSE) 3,698 6.8 -13.5°
